Hourly Data Report for September 09, 2017

All times are specified in Local Standard Time (LST). Add 1 hour to adjust for Daylight Saving Time where and when it is observed.

MISCOU ISLAND (AUT)
NEW BRUNSWICK

48°00'32.002" N
64°29'39.008" W
4.00 m
8103050
71719
WMI

Download Data

Hourly Data (September 2017)
Hourly Data Report for September 9, 2017
Temp Definition
°C
Dew Point Temp Definition
°C
Rel Hum Definition
%
Wind Dir Definition
10's deg

Wind Spd Definition
km/h
Visibility Definition
km
Stn Press Definition
kPa
Hmdx Definition


Wind Chill Definition


Weather Definition


TIME
00:00 14.0 11.2 83 9 9   101.90     LegendNANA
01:00 14.1 11.4 84 8 10   101.94     LegendNANA
02:00 14.0 11.7 86 4 10   101.97     LegendNANA
03:00 14.0 11.2 83 4 20   101.98     LegendNANA
04:00 13.6 10.8 83 4 21   102.01     LegendNANA
05:00 13.5 10.9 84 2 17   102.04     LegendNANA
06:00 13.6 11.0 84 2 19   102.10     LegendNANA
07:00 13.8 10.7 82 2 23   102.17     LegendNANA
08:00 14.1 11.0 82 2 20   102.21     LegendNANA
09:00 13.9 11.2 84 2 20   102.26     LegendNANA
10:00 13.6 11.1 85 2 23   102.29     LegendNANA
11:00 14.6 11.7 83 2 22   102.32     LegendNANA
12:00 14.8 11.9 83 3 23   102.33     LegendNANA
13:00 15.0 12.4 85 3 19   102.36     LegendNANA
14:00 14.4 12.2 87 4 20   102.35     LegendNANA
15:00 14.1 12.1 88 3 23   102.32     LegendNANA
16:00 14.3 12.2 87 4 18   102.34     LegendNANA
17:00 14.1 12.1 88 4 16   102.37     LegendNANA
18:00 13.6 11.9 89 3 17   102.38     LegendNANA
19:00 13.1 11.7 91 2 14   102.40     LegendNANA
20:00 12.9 11.8 93 2 11   102.46     LegendNANA
21:00 12.8 11.8 93 2 13   102.46     LegendNANA
22:00 12.8 11.7 94 36 14   102.49     LegendNANA
23:00 12.6 11.5 93 36 11   102.47     LegendNANA

Notes on Data Quality.

Legend

  • E = Estimated
  • M = Missing
  • NA = Not Available
  • ‡ = Partner data that is not subject to review by the National Climate Archives
Date modified: